Location: Peach Mountain Observatory
(42.3967°N, 83.9367°W)
Time: 22:15:04
(UTC-04:00)

deb Explorer IX - Pass Details

Date: 24 January 2020
Orbit: 547 x 1100 km, 38.8° (Epoch: 06 April)

Event Time Altitude Azimuth Distance (km) Brightness Sun altitude
Rises 05:01:31 0° 274° (W) 3,833 - -32.3°
Reaches altitude 10° 05:05:29 10° 255° (WSW) 2,798 - -31.6°
Maximum altitude 05:09:19 16° 220° (SW) 2,293 - -30.9°
Drops below altitude 10° 05:12:56 10° 185° (S) 2,587 - -30.2°
Exits shadow 05:13:17 - 182° (S) 2,653 ? -30.1°
Sets 05:16:23 0° 164° (SSE) 3,405 ? -29.5°
